TimeCST,TemperatureF,Dew PointF,Humidity,Sea Level PressureIn,VisibilityMPH,Wind Direction,Wind SpeedMPH,Gust SpeedMPH,PrecipitationIn,Events,Conditions,WindDirDegrees,DateUTC
12:55 AM,55.4,41.9,60,30.15,10.0,SSE,9.2,-,N/A,,Clear,150,2012-11-11 06:55:00
1:55 AM,53.8,41.9,64,30.16,10.0,SE,6.9,-,N/A,,Clear,140,2012-11-11 07:55:00
2:55 AM,53.6,41.5,64,30.16,10.0,SSE,5.8,-,N/A,,Clear,160,2012-11-11 08:55:00
3:55 AM,55.2,41.0,59,30.17,10.0,SSE,5.8,-,N/A,,Clear,160,2012-11-11 09:55:00
4:55 AM,54.3,41.0,61,30.19,10.0,SSE,10.4,-,N/A,,Clear,150,2012-11-11 10:55:00
5:55 AM,53.6,40.6,62,30.19,10.0,SE,10.4,-,N/A,,Clear,140,2012-11-11 11:55:00
6:55 AM,53.6,41.0,62,30.20,10.0,SSE,8.1,-,N/A,,Clear,150,2012-11-11 12:55:00
7:55 AM,57.4,43.3,59,30.21,10.0,SSE,9.2,-,N/A,,Partly Cloudy,150,2012-11-11 13:55:00
8:55 AM,61.0,44.1,54,30.20,10.0,South,13.8,-,N/A,,Clear,170,2012-11-11 14:55:00
9:55 AM,65.5,43.3,45,30.21,10.0,South,15.0,23.0,N/A,,Partly Cloudy,180,2012-11-11 15:55:00
10:55 AM,65.8,41.2,41,30.18,10.0,South,17.3,25.3,N/A,,Scattered Clouds,170,2012-11-11 16:55:00
11:55 AM,65.8,42.8,43,30.15,10.0,South,11.5,-,N/A,,Overcast,170,2012-11-11 17:55:00
12:54 PM,69.8,48.2,46,30.12,10.0,South,17.3,26.5,N/A,,Light Drizzle,190,2012-11-11 18:54:00
12:55 PM,69.8,47.8,46,30.12,10.0,South,15.0,26.5,0.00,,Light Drizzle,180,2012-11-11 18:55:00
12:59 PM,69.8,48.2,46,30.11,10.0,South,18.4,26.5,N/A,,Light Drizzle,190,2012-11-11 18:59:00
1:04 PM,69.8,48.2,46,30.11,10.0,South,18.4,23.0,N/A,,Mostly Cloudy,170,2012-11-11 19:04:00
1:08 PM,69.8,48.2,46,30.11,10.0,South,23.0,27.6,N/A,,Light Drizzle,190,2012-11-11 19:08:00
1:34 PM,69.8,48.2,46,30.10,10.0,South,16.1,27.6,N/A,,Scattered Clouds,180,2012-11-11 19:34:00
1:38 PM,69.8,48.2,46,30.09,10.0,South,20.7,26.5,N/A,,Light Drizzle,190,2012-11-11 19:38:00
1:55 PM,70.5,48.2,45,30.09,10.0,South,24.2,33.4,0.00,,Light Drizzle,190,2012-11-11 19:55:00
2:23 PM,69.8,48.2,46,30.09,10.0,South,19.6,29.9,N/A,,Overcast,190,2012-11-11 20:23:00
2:24 PM,69.8,48.2,46,30.09,10.0,South,18.4,29.9,N/A,,Light Drizzle,180,2012-11-11 20:24:00
2:35 PM,69.8,48.2,46,30.08,10.0,South,17.3,24.2,N/A,,Mostly Cloudy,180,2012-11-11 20:35:00
2:41 PM,69.8,48.2,46,30.08,10.0,South,19.6,24.2,N/A,,Light Drizzle,180,2012-11-11 20:41:00
2:42 PM,69.8,48.2,46,30.08,10.0,South,19.6,24.2,N/A,,Mostly Cloudy,190,2012-11-11 20:42:00
2:43 PM,69.8,48.2,46,30.08,10.0,South,17.3,24.2,N/A,,Light Drizzle,190,2012-11-11 20:43:00
2:51 PM,69.8,48.2,46,30.08,10.0,South,16.1,24.2,N/A,,Mostly Cloudy,190,2012-11-11 20:51:00
2:55 PM,70.2,47.7,45,30.08,10.0,South,19.6,26.5,0.00,,Mostly Cloudy,180,2012-11-11 20:55:00
3:55 PM,69.6,46.4,43,30.06,10.0,South,17.3,23.0,N/A,,Clear,170,2012-11-11 21:55:00
4:55 PM,68.2,48.0,48,30.04,10.0,South,18.4,32.2,N/A,,Clear,170,2012-11-11 22:55:00
5:55 PM,66.9,49.6,54,30.05,10.0,SSE,16.1,23.0,N/A,,Partly Cloudy,160,2012-11-11 23:55:00
6:55 PM,66.6,50.2,56,30.05,10.0,South,18.4,27.6,N/A,,Partly Cloudy,170,2012-11-12 00:55:00
7:55 PM,66.2,49.3,54,30.06,10.0,South,13.8,26.5,N/A,,Mostly Cloudy,170,2012-11-12 01:55:00
8:55 PM,66.2,48.7,53,30.06,10.0,South,16.1,24.2,N/A,,Mostly Cloudy,180,2012-11-12 02:55:00
9:21 PM,66.2,50.0,56,30.06,10.0,South,16.1,-,N/A,,Light Drizzle,180,2012-11-12 03:21:00
9:29 PM,66.2,50.0,56,30.07,10.0,South,18.4,24.2,N/A,,Overcast,180,2012-11-12 03:29:00
9:32 PM,66.2,50.0,56,30.07,10.0,South,15.0,24.2,N/A,,Overcast,180,2012-11-12 03:32:00
9:33 PM,66.2,50.0,56,30.07,10.0,South,13.8,24.2,N/A,,Drizzle,180,2012-11-12 03:33:00
9:41 PM,64.4,50.0,59,30.08,10.0,South,13.8,-,N/A,,Overcast,190,2012-11-12 03:41:00
9:50 PM,64.4,50.0,59,30.08,10.0,South,18.4,23.0,N/A,,Overcast,170,2012-11-12 03:50:00
9:52 PM,64.4,51.8,64,30.08,10.0,South,16.1,23.0,N/A,,Light Drizzle,180,2012-11-12 03:52:00
9:55 PM,64.4,51.4,63,30.09,10.0,South,17.3,23.0,0.00,,Light Drizzle,180,2012-11-12 03:55:00
10:06 PM,62.6,51.8,68,30.08,10.0,South,13.8,25.3,N/A,,Mostly Cloudy,180,2012-11-12 04:06:00
10:09 PM,62.6,51.8,68,30.08,10.0,South,15.0,-,N/A,,Light Drizzle,180,2012-11-12 04:09:00
10:55 PM,59.9,56.7,89,30.08,10.0,South,11.5,-,0.11,Rain,Light Rain,180,2012-11-12 04:55:00
11:35 PM,59.0,57.2,94,30.07,10.0,South,13.8,-,N/A,,Overcast,180,2012-11-12 05:35:00
11:36 PM,59.0,57.2,94,30.07,10.0,South,13.8,-,N/A,Rain,Light Rain,180,2012-11-12 05:36:00
11:37 PM,59.0,57.2,94,30.07,10.0,South,12.7,-,N/A,,Overcast,180,2012-11-12 05:37:00
11:40 PM,59.0,57.2,94,30.06,10.0,South,13.8,-,N/A,Rain,Light Rain,180,2012-11-12 05:40:00
11:55 PM,59.4,57.9,95,30.06,10.0,South,15.0,21.9,0.10,Rain,Light Rain,170,2012-11-12 05:55:00